Weather History for Whiting Fld NAS, FL

Change the Weather History Date:

Saturday, November 24, 2012

  Actual Average Record
Temperature  
Mean Temperature 51 °F -  
Max Temperature 61 °F 66 °F 82 °F (2010)
Min Temperature 41 °F 47 °F 37 °F (2003)
Degree Days  
Heating Degree Days 14    
Growing Degree Days 1 (Base 50)    
Moisture  
Dew Point 34 °F    
Average Humidity 55    
Maximum Humidity 82    
Minimum Humidity 29    
Precipitation  
Precipitation 0.00 in - - ()
Sea Level Pressure  
Sea Level Pressure 30.15 in    
Wind  
Wind Speed 7 mph (North)    
Max Wind Speed 12 mph    
Max Gust Speed 20 mph    
Visibility 10 miles    
Events      
Averages and records for this station are not official NWS values.
T = Trace of Precipitation, MM = Missing Value Source: NWS Daily Summary

Daily Weather History Graph

Daily Weather History Graph

Search for Another Location

Airport:

Trip Planner

Search our weather history database for the weather conditions in past years. The results will help you decide how hot, cold, wet, or windy it might be!

Date:

Astronomy

Nov. 24, 2012 Rise Set
Actual Time 6:22 AM CST 4:47 PM CST
Civil Twilight 5:56 AM CST 5:13 PM CST
Nautical Twilight 5:27 AM CST 5:42 PM CST
Astronomical Twilight 4:58 AM CST 6:11 PM CST
Moon 2:21 PM CST (11/24) 2:50 AM CST (11/24)
Length of Visible Light 11h 16m
Length of Day
10h 24m
Waxing Gibbous, 87% of the Moon is Illuminated
Nov 24
Waxing Gibbous
Nov 28
Full
Dec 6
Last Quarter
Dec 13
New
Dec 19
First Quarter

Hourly Weather History & Observations

Time (CST) Temp. Windchill Dew Point Humidity Pressure Visibility Wind Dir Wind Speed Gust Speed Precip Events Conditions
12:56 AM 55.9 °F - 48.0 °F 75% 30.12 in 10.0 mi North 6.9 mph - N/A   Clear
1:56 AM 54.0 °F - 46.9 °F 77% 30.12 in 10.0 mi NNW 9.2 mph - N/A   Clear
2:56 AM 51.1 °F - 43.0 °F 74% 30.13 in 10.0 mi North 8.1 mph - N/A   Clear
3:56 AM 48.9 °F - 42.1 °F 77% 30.13 in 10.0 mi NNW 4.6 mph - N/A   Clear
4:56 AM 46.9 °F - 39.9 °F 77% 30.16 in 10.0 mi NNW 6.9 mph - N/A   Clear
5:56 AM 44.1 °F 41.5 °F 39.0 °F 82% 30.19 in 10.0 mi NNW 4.6 mph - N/A   Clear
6:56 AM 44.1 °F 41.5 °F 37.9 °F 79% 30.20 in 10.0 mi North 4.6 mph - N/A   Clear
7:56 AM 46.9 °F - 37.9 °F 71% 30.22 in 10.0 mi Variable 5.8 mph - N/A   Clear
8:56 AM 50.0 °F - 37.0 °F 61% 30.22 in 10.0 mi North 5.8 mph - N/A   Clear
9:56 AM 54.0 °F - 36.0 °F 51% 30.22 in 10.0 mi North 5.8 mph - N/A   Clear
10:56 AM 55.9 °F - 32.0 °F 40% 30.19 in 10.0 mi North 10.4 mph 19.6 mph N/A   Clear
11:56 AM 59.0 °F - 30.9 °F 35% 30.15 in 10.0 mi NNE 8.1 mph 16.1 mph N/A   Clear
12:56 PM 61.0 °F - 30.9 °F 32% 30.13 in 10.0 mi NNW 11.5 mph 16.1 mph N/A   Clear
1:56 PM 61.0 °F - 30.0 °F 31% 30.12 in 10.0 mi NNW 8.1 mph - N/A   Clear
2:56 PM 61.0 °F - 28.0 °F 29% 30.12 in 10.0 mi North 6.9 mph 16.1 mph N/A   Clear
3:56 PM 59.0 °F - 30.0 °F 33% 30.12 in 10.0 mi NNW 8.1 mph - 0.00 in   Clear
4:56 PM 53.1 °F - 32.0 °F 45% 30.13 in 10.0 mi NW 4.6 mph - N/A   Clear
5:56 PM 48.9 °F - 30.0 °F 48% 30.15 in 10.0 mi NNW 3.5 mph - N/A   Clear
6:56 PM 46.9 °F - 28.9 °F 50% 30.15 in 10.0 mi North 4.6 mph - N/A   Clear
7:56 PM 48.0 °F - 27.0 °F 44% 30.15 in 10.0 mi North 9.2 mph - N/A   Clear
8:56 PM 44.1 °F 40.8 °F 28.0 °F 53% 30.16 in 10.0 mi North 5.8 mph - N/A   Clear
9:56 PM 43.0 °F 40.3 °F 27.0 °F 53% 30.15 in 10.0 mi North 4.6 mph - N/A   Clear
10:56 PM 41.0 °F 39.0 °F 27.0 °F 57% 30.14 in 10.0 mi North 3.5 mph - N/A   Clear
11:56 PM 41.0 °F 39.0 °F 27.0 °F 57% 30.13 in 10.0 mi North 3.5 mph - N/A   Clear